Chillicothe, MO

8:56 AM CDT on October 21, 2019 (GMT -0500)
Chillicothe

Weather History for KCDJ - August, 2019

Change the Weather History Date:

Friday, August 23, 2019

  Actual Average (KIRK) Record (KIRK)
Temperature  
Mean Temperature 72 °F -  
Max Temperature 82 °F 82 °F 103 °F (1936)
Min Temperature 63 °F 61 °F 46 °F (1966)
Cooling Degree Days 8    
Growing Degree Days 22 (Base 50)    
Moisture  
Dew Point 64 °F    
Average Humidity 73    
Maximum Humidity 93    
Minimum Humidity 58    
Precipitation  
Precipitation 0.00 in - - ()
Sea Level Pressure  
Sea Level Pressure 30.07 in    
Wind  
Wind Speed 4 mph (ENE)    
Max Wind Speed 8 mph    
Max Gust Speed 18 mph    
Averages and records for this station are not official NWS values.
T = Trace of Precipitation, MM = Missing Value Source: NWS Daily Summary

Daily Weather History Graph

Daily Weather History Graph

Search for Another Location

Airport or City:

Astronomy

Aug. 23, 2019 Rise Set
Actual Time 6:33 AM CDT 7:59 PM CDT
Civil Twilight 6:05 AM CDT 8:27 PM CDT
Nautical Twilight 5:31 AM CDT 9:01 PM CDT
Astronomical Twilight 4:55 AM CDT 9:37 PM CDT
Moon No Moon Rise 2:10 PM CDT (8/23)
Length of Visible Light 14h 22m
Length of Day
13h 25m
Waning Gibbous, 49% of the Moon is Illuminated
Aug 23
Waning Gibbous
Aug 30
New
Sep 5
First Quarter
Sep 13
Full
Sep 21
Last Quarter

Hourly Weather History & Observations

Time (CDT) Temp. Heat Index Dew Point Humidity Pressure Visibility Wind Dir Wind Speed Gust Speed Precip Events Conditions
12:52 AM 70.0 °F - 62.1 °F 76% 30.03 in - NE 3.5 mph - N/A   Unknown
2:52 AM 66.9 °F - 61.0 °F 81% 30.02 in - ENE 3.5 mph - N/A   Unknown
4:52 AM 64.9 °F - 60.1 °F 84% 30.02 in - Calm Calm - N/A   Unknown
5:52 AM 63.0 °F - 61.0 °F 93% 30.06 in - Calm Calm - N/A   Unknown
6:52 AM 64.0 °F - 60.1 °F 87% 30.07 in - NE 3.5 mph - N/A   Unknown
7:52 AM 66.0 °F - 61.0 °F 84% 30.09 in - Variable 4.6 mph - N/A   Unknown
8:52 AM 70.0 °F - 63.0 °F 78% 30.08 in - Variable 4.6 mph - N/A   Unknown
9:52 AM 73.0 °F - 64.0 °F 73% 30.09 in - East 8.1 mph - N/A   Unknown
10:52 AM 75.0 °F - 64.9 °F 71% 30.10 in - East 6.9 mph - N/A   Unknown
11:52 AM 77.0 °F - 66.0 °F 69% 30.11 in - ESE 6.9 mph - N/A   Unknown
12:52 PM 79.0 °F - 64.9 °F 62% 30.08 in - East 8.1 mph - N/A   Unknown
1:52 PM 81.0 °F 82.7 °F 64.9 °F 58% 30.07 in - East 6.9 mph 17.3 mph N/A   Unknown
2:52 PM 82.0 °F 84.1 °F 66.0 °F 58% 30.06 in - East 6.9 mph - N/A   Unknown
3:52 PM 81.0 °F 82.7 °F 64.9 °F 58% 30.06 in - East 6.9 mph 18.4 mph N/A   Unknown
5:52 PM 81.0 °F 82.7 °F 64.9 °F 58% 30.05 in - Variable 6.9 mph - N/A   Unknown
6:52 PM 79.0 °F - 64.9 °F 62% 30.06 in - Variable 5.8 mph - N/A   Unknown
7:52 PM 75.0 °F - 64.9 °F 71% 30.07 in - Calm Calm - N/A   Unknown
8:52 PM 73.0 °F - 64.9 °F 76% 30.09 in - ENE 3.5 mph - N/A   Unknown
9:52 PM 72.0 °F - 64.9 °F 78% 30.10 in - Variable 3.5 mph - N/A   Unknown
10:52 PM 71.1 °F - 64.0 °F 78% 30.10 in - East 5.8 mph - N/A   Unknown
11:52 PM 69.1 °F - 63.0 °F 81% 30.10 in - North - - N/A   Unknown